Torna al catalogo

STARLINK-37322

AttivoComunicazioniVLEO
NORAD 68715·PAYLOAD·🇺🇸 United States

Lanciato Apr 14, 2026 da Cape Canaveral Space Force Station

Loading…

Prossimi Passaggi (prossime 24 ore)

TLE

AggiornatoSource: CelesTrak SupGP

Epoca: Sep 15, 2026, 03:25 UTC

1 68715C 26081S   26258.14284722 -.00049898  00000+0 -14742-2 0  2584
2 68715  53.1588 230.7312 0001427  84.1498  14.5526 15.34415733    15

Traccia STARLINK-37322 in tempo reale con AllMySat

Download on the App Store